TimeCDT,TemperatureF,Dew PointF,Humidity,Sea Level PressureIn,VisibilityMPH,Wind Direction,Wind SpeedMPH,Gust SpeedMPH,PrecipitationIn,Events,Conditions,WindDirDegrees,DateUTC
12:53 AM,73.9,63.0,68,29.78,10.0,South,20.7,27.6,N/A,,Scattered Clouds,170,2012-10-25 05:53:00
1:53 AM,73.0,64.0,73,29.78,10.0,South,17.3,25.3,N/A,,Scattered Clouds,180,2012-10-25 06:53:00
2:53 AM,72.0,64.9,78,29.78,10.0,South,18.4,25.3,N/A,,Mostly Cloudy,180,2012-10-25 07:53:00
3:53 AM,71.1,64.9,81,29.78,10.0,South,15.0,-,N/A,,Scattered Clouds,190,2012-10-25 08:53:00
4:53 AM,71.1,64.9,81,29.79,10.0,South,13.8,-,N/A,,Mostly Cloudy,170,2012-10-25 09:53:00
5:53 AM,71.1,64.9,81,29.81,10.0,South,17.3,-,N/A,,Mostly Cloudy,190,2012-10-25 10:53:00
6:48 AM,71.6,64.4,78,29.84,10.0,South,18.4,23.0,N/A,,Scattered Clouds,190,2012-10-25 11:48:00
6:53 AM,71.1,64.9,81,29.82,10.0,South,15.0,-,N/A,,Scattered Clouds,180,2012-10-25 11:53:00
7:53 AM,71.1,64.9,81,29.83,10.0,South,15.0,-,N/A,,Mostly Cloudy,180,2012-10-25 12:53:00
8:53 AM,73.4,66.2,78,29.86,10.0,South,16.1,-,N/A,,Mostly Cloudy,180,2012-10-25 13:53:00
9:53 AM,77.0,66.0,69,29.86,10.0,South,19.6,26.5,N/A,,Mostly Cloudy,190,2012-10-25 14:53:00
10:53 AM,79.0,66.0,64,29.87,10.0,SSW,16.1,-,N/A,,Mostly Cloudy,200,2012-10-25 15:53:00
11:53 AM,78.1,64.9,64,29.88,10.0,SSW,15.0,-,N/A,,Overcast,210,2012-10-25 16:53:00
12:53 PM,80.1,66.0,62,29.87,10.0,SW,12.7,-,0.00,,Light Drizzle,220,2012-10-25 17:53:00
1:53 PM,80.1,64.9,60,29.85,10.0,SSW,9.2,-,0.00,,Overcast,210,2012-10-25 18:53:00
2:43 PM,68.0,57.2,68,29.88,10.0,NNW,31.1,36.8,N/A,,Overcast,330,2012-10-25 19:43:00
2:53 PM,66.0,55.0,68,29.87,10.0,NNW,24.2,39.1,0.00,Rain,Light Rain,330,2012-10-25 19:53:00
3:53 PM,64.0,51.1,63,29.91,10.0,North,23.0,-,0.00,,Overcast,350,2012-10-25 20:53:00
4:12 PM,64.4,50.0,59,29.93,10.0,NNW,19.6,-,N/A,,Overcast,340,2012-10-25 21:12:00
4:53 PM,63.0,48.0,58,29.94,10.0,North,25.3,29.9,N/A,,Overcast,360,2012-10-25 21:53:00
5:45 PM,62.6,46.4,55,29.97,10.0,North,20.7,-,N/A,,Overcast,360,2012-10-25 22:45:00
5:53 PM,62.1,46.0,56,29.96,10.0,North,17.3,-,N/A,,Overcast,350,2012-10-25 22:53:00
6:53 PM,62.1,46.0,56,29.98,10.0,North,12.7,-,N/A,,Overcast,10,2012-10-25 23:53:00
7:53 PM,61.0,44.1,54,30.01,10.0,North,20.7,-,N/A,,Overcast,10,2012-10-26 00:53:00
8:53 PM,59.0,42.1,53,30.02,10.0,North,21.9,32.2,N/A,,Overcast,10,2012-10-26 01:53:00
9:53 PM,59.0,41.0,51,30.04,10.0,North,16.1,25.3,N/A,,Overcast,10,2012-10-26 02:53:00
10:53 PM,57.0,41.0,55,30.05,10.0,North,21.9,27.6,N/A,,Mostly Cloudy,10,2012-10-26 03:53:00
11:53 PM,55.0,39.0,55,30.06,10.0,North,21.9,29.9,N/A,,Mostly Cloudy,10,2012-10-26 04:53:00